Tracking 32139 objects as of 18-Nov-2025
HD Live streaming from Space Station
objects crossing your sky now

STARLINK-35107

Track STARLINK-35107 now!
10-day predictions
STARLINK-35107 is classified as:


NORAD ID: 65464
Int'l Code: 2025-195G
Perigee: 453.5 km
Apogee: 455.4 km
Inclination: 53.2 °
Period: 93.5 minutes
Semi major axis: 6825 km
RCS: Unknown
Launch date: September 3, 2025
Source: United States (US)
Launch site: AIR FORCE EASTERN TEST RANGE (AFETR)
Your satellite tracking list
Your tracking list is empty




NASA's NSSDC Master Catalog

Two Line Element Set (TLE):
1 65464U 25195G   25321.69913635  .00063122  00000-0  15764-2 0  9991
2 65464  53.1591  58.6426 0001362  91.9652 268.1509 15.39592456 12841
Source of the keplerian elements: AFSPC